GW3840 Weather Reports


time (UTC)temp
F
wind
direction
speed
knots
gust
knots
rain 1hr
in
rain 24hr
in
rain mn
in
humidity
%
barometer
mb
20260905120701 62 113 1.7 3.5 0.00 0.00 0.00 99 1018.1
20260905120155 62 125 1.7 5.2 0.00 0.00 0.00 99 1017.9
20260905115650 62 110 2.6 5.2 0.00 0.00 0.00 99 1018.1
20260905115145 62 128 0.0 1.7 0.00 0.00 0.00 99 1018.0
20260905114644 62 74 3.5 3.5 0.00 0.00 0.00 99 1017.9
20260905114143 62 46 1.7 2.6 0.00 0.00 0.00 99 1017.9
20260905113637 62 123 1.7 3.5 0.00 0.00 0.00 99 1018.2
20260905113133 62 161 0.9 3.5 0.00 0.00 0.00 99 1018.1
20260905112627 62 84 2.6 2.6 0.00 0.00 0.00 99 1018.0
20260905112123 62 127 0.0 0.9 0.00 0.00 0.00 99 1018.0
20260905111618 62 218 0.0 1.7 0.00 0.00 0.00 99 1017.9
20260905111117 62 183 0.0 2.6 0.00 0.00 0.00 99 1018.0
20260905110616 62 102 1.7 3.5 0.00 0.00 0.00 99 1018.1
20260905110111 62 155 0.0 5.2 0.00 0.00 0.00 99 1018.0
20260905105606 62 94 2.6 5.2 0.00 0.00 0.00 99 1018.1
20260905105105 63 100 3.5 7.0 0.00 0.00 0.00 99 1017.9
20260905104601 63 139 0.9 5.2 0.00 0.00 0.00 99 1018.1
20260905104101 63 159 0.9 5.2 0.00 0.00 0.00 99 1018.0
20260905103550 63 103 0.9 2.6 0.00 0.00 0.00 99 1017.8
20260905103047 63 71 0.9 6.1 0.00 0.00 0.00 99 1017.7
20260905102542 63 100 0.9 2.6 0.00 0.00 0.00 99 1017.9
20260905102039 63 119 0.9 1.7 0.00 0.00 0.00 99 1017.8
20260905101537 63 162 0.0 0.9 0.00 0.00 0.00 99 1017.7
20260905101035 63 187 0.0 1.7 0.00 0.00 0.00 99 1017.8
20260905100532 63 98 1.7 7.0 0.00 0.00 0.00 99 1017.7
20260905100031 63 125 1.7 2.6 0.00 0.00 0.00 99 1017.5
20260905095526 63 81 2.6 3.5 0.00 0.00 0.00 99 1017.4
20260905095021 63 102 1.7 5.2 0.00 0.00 0.00 99 1017.6
20260905094516 63 90 0.9 1.7 0.00 0.00 0.00 99 1017.6
20260905094015 63 329 0.0 3.5 0.00 0.00 0.00 99 1017.1
20260905093509 63 71 1.7 3.5 0.00 0.00 0.00 99 1016.6
20260905093007 63 83 3.5 5.2 0.00 0.00 0.00 99 1016.8
20260905092501 63 137 1.7 5.2 0.00 0.00 0.00 99 1016.6
20260905091956 63 18 1.7 2.6 0.00 0.00 0.00 99 1016.5
20260905091450 63 87 2.6 3.5 0.00 0.00 0.00 99 1016.6
20260905090950 63 60 2.6 3.5 0.00 0.00 0.00 99 1016.7
20260905090445 63 44 2.6 2.6 0.00 0.00 0.00 99 1016.5
20260905085944 63 86 4.3 7.0 0.00 0.00 0.00 99 1016.5
20260905085444 63 73 1.7 3.5 0.00 0.00 0.00 99 1016.6
20260905084939 64 90 3.5 7.0 0.00 0.00 0.00 99 1016.7
20260905084439 64 346 0.9 3.5 0.00 0.00 0.00 99 1016.8
20260905083933 64 66 5.2 7.0 0.00 0.00 0.00 99 1016.7
20260905083430 64 75 1.7 2.6 0.00 0.00 0.00 99 1017.0
20260905082925 64 122 1.7 5.2 0.00 0.00 0.00 99 1017.0
20260905082421 64 139 0.0 0.0 0.00 0.00 0.00 99 1017.5
20260905081916 64 167 0.9 0.9 0.00 0.00 0.00 99 1017.5
20260905081411 64 99 1.7 3.5 0.00 0.00 0.00 99 1017.7
20260905080910 64 115 3.5 5.2 0.00 0.00 0.00 99 1017.5
20260905080409 64 81 4.3 5.2 0.00 0.00 0.00 99 1017.6
20260905075908 64 106 1.7 2.6 0.00 0.00 0.00 99 1017.5
20260905075403 64 96 0.9 6.1 0.00 0.00 0.00 99 1017.7
20260905074902 64 88 0.9 5.2 0.00 0.00 0.00 99 1017.6
20260905074358 64 134 0.9 2.6 0.00 0.00 0.00 99 1017.7
20260905073854 64 81 3.5 6.1 0.00 0.00 0.00 99 1017.8
20260905073348 64 123 1.7 5.2 0.00 0.00 0.00 99 1017.9
20260905072843 65 57 1.7 3.5 0.00 0.00 0.00 99 1017.9
20260905072339 65 104 1.7 5.2 0.00 0.00 0.00 99 1018.0
20260905071835 65 87 0.9 1.7 0.00 0.00 0.00 99 1017.9
20260905071331 65 111 3.5 3.5 0.00 0.00 0.00 99 1018.0
20260905070826 65 111 3.5 6.1 0.00 0.00 0.00 99 1017.8
20260905070322 65 86 1.7 6.1 0.00 0.00 0.00 99 1017.7
20260905065821 65 293 1.7 5.2 0.00 0.00 0.00 99 1018.1
20260905065319 65 118 2.6 6.1 0.00 0.00 0.00 99 1017.9
20260905064815 65 87 3.5 5.2 0.00 0.00 0.00 99 1017.9
20260905064310 65 99 2.6 2.6 0.00 0.00 0.00 99 1017.9
20260905063808 65 140 1.7 3.5 0.00 0.00 0.00 99 1018.0
20260905063305 65 79 4.3 8.7 0.00 0.00 0.00 99 1017.9
20260905062801 65 115 0.9 3.5 0.00 0.00 0.00 99 1018.1
20260905062255 66 92 5.2 7.0 0.00 0.00 0.00 99 1018.2
20260905061750 66 71 1.7 7.0 0.00 0.00 0.00 99 1018.0
20260905061249 66 90 2.6 3.5 0.00 0.00 0.00 99 1018.1
20260905060743 66 157 2.6 6.1 0.00 0.00 0.00 99 1018.1
20260905060241 66 148 1.7 8.7 0.00 0.00 0.00 99 1018.0
20260905055739 66 99 3.5 5.2 0.00 0.00 0.00 99 1018.1
20260905055235 66 79 3.5 6.1 0.00 0.00 0.00 99 1018.3
20260905054729 66 94 0.9 1.7 0.00 0.00 0.00 98 1018.2
20260905054226 66 151 1.7 3.5 0.00 0.00 0.00 98 1018.1
20260905053725 66 97 5.2 6.1 0.00 0.00 0.00 99 1018.1
20260905053220 66 116 2.6 6.1 0.00 0.00 0.00 98 1018.2
20260905052714 67 109 0.9 1.7 0.00 0.00 0.00 99 1018.2
20260905052209 67 114 2.6 5.2 0.00 0.00 0.00 99 1018.2
20260905051709 67 79 1.7 3.5 0.00 0.00 0.00 99 1018.1
20260905051206 67 191 0.9 1.7 0.00 0.00 0.00 98 1017.9
20260905050702 67 111 0.9 2.6 0.00 0.00 0.00 98 1017.8
20260905050159 67 90 4.3 6.1 0.00 0.00 0.00 98 1017.6
20260905045653 68 87 3.5 5.2 0.00 0.00 0.00 98 1017.6
20260905045148 68 112 2.6 5.2 0.00 0.00 0.00 98 1017.6
20260905044648 68 71 4.3 7.0 0.00 0.00 0.00 98 1017.8
20260905044143 68 113 1.7 5.2 0.00 0.00 0.00 98 1017.6
20260905043642 68 116 4.3 6.1 0.00 0.00 0.00 98 1017.6
20260905043137 68 105 2.6 5.2 0.00 0.00 0.00 98 1017.6
20260905042636 68 75 1.7 6.1 0.00 0.00 0.00 98 1017.8
20260905042131 68 97 1.7 6.1 0.00 0.00 0.00 97 1017.7
20260905041627 68 104 0.9 5.2 0.00 0.00 0.00 97 1017.9
20260905041123 68 75 1.7 5.2 0.00 0.00 0.00 97 1017.8
20260905040622 69 112 3.5 7.0 0.00 0.00 0.00 97 1017.8
20260905040121 69 82 2.6 3.5 0.00 0.00 0.00 97 1017.9
20260905035616 69 67 0.0 3.5 0.00 0.00 0.00 96 1017.8
20260905035113 69 103 2.6 3.5 0.00 0.00 0.00 96 1017.8
20260905034608 69 1 3.5 6.1 0.00 0.00 0.00 96 1017.8
20260905034102 69 76 0.9 3.5 0.00 0.00 0.00 96 1017.8
20260905033601 70 130 2.6 2.6 0.00 0.00 0.00 96 1017.8
20260905033058 70 78 3.5 5.2 0.00 0.00 0.00 95 1017.6
20260905032557 70 65 0.9 6.1 0.00 0.00 0.00 95 1017.6
20260905032052 70 74 2.6 3.5 0.00 0.00 0.00 95 1017.6
20260905031548 70 125 0.9 2.6 0.00 0.00 0.00 95 1017.5
20260905031048 71 65 1.7 2.6 0.00 0.00 0.00 95 1017.5
20260905030543 71 105 0.9 7.0 0.00 0.00 0.00 94 1017.6
20260905030043 71 35 1.7 2.6 0.00 0.00 0.00 94 1017.4
20260905025538 71 100 0.9 3.5 0.00 0.00 0.00 94 1017.4
20260905025035 72 71 1.7 3.5 0.00 0.00 0.00 93 1017.2
20260905024530 72 51 3.5 5.2 0.00 0.00 0.00 93 1017.2
20260905024025 72 135 0.0 1.7 0.00 0.00 0.00 93 1017.4
20260905023520 72 90 0.9 7.0 0.00 0.00 0.00 92 1017.1
20260905023015 73 104 3.5 6.1 0.00 0.00 0.00 92 1017.2
20260905022515 73 86 0.9 5.2 0.00 0.00 0.00 91 1016.9
20260905022010 73 90 3.5 6.1 0.00 0.00 0.00 91 1016.7
20260905021509 73 74 1.7 5.2 0.00 0.00 0.00 90 1016.7
20260905021005 74 47 3.5 3.5 0.00 0.00 0.00 90 1016.9
20260905020459 74 84 2.6 2.6 0.00 0.00 0.00 89 1016.6
20260905015953 74 77 0.0 0.9 0.00 0.00 0.00 88 1016.7
20260905015451 75 117 1.7 2.6 0.00 0.00 0.00 87 1016.5
20260905014945 75 85 0.9 2.6 0.00 0.00 0.00 87 1016.3
20260905014441 75 76 1.7 3.5 0.00 0.00 0.00 87 1016.3
20260905013936 75 145 0.9 2.6 0.00 0.00 0.00 86 1016.2
20260905013433 75 88 2.6 3.5 0.00 0.00 0.00 86 1016.2
20260905012933 75 52 4.3 5.2 0.00 0.00 0.00 86 1016.1
20260905012428 75 90 0.0 0.9 0.00 0.00 0.00 86 1015.9
20260905011925 75 62 1.7 1.7 0.00 0.00 0.00 86 1016.0
20260905011421 75 93 0.9 0.9 0.00 0.00 0.00 86 1016.1
20260905010916 76 145 0.0 0.0 0.00 0.00 0.00 85 1016.3
20260905010411 76 90 0.9 1.7 0.00 0.00 0.00 84 1016.2
20260905005907 77 90 0.9 3.5 0.00 0.00 0.00 83 1016.3
20260905005403 77 54 1.7 2.6 0.00 0.00 0.00 83 1016.1
20260905004857 77 144 0.9 2.6 0.00 0.00 0.00 82 1015.9
20260905004352 77 121 0.0 2.6 0.00 0.00 0.00 82 1016.1
20260905003847 77 149 0.0 1.7 0.00 0.00 0.00 82 1015.9
20260905003343 78 93 0.9 1.7 0.00 0.00 0.00 81 1016.2
20260905002838 78 91 0.9 2.6 0.00 0.00 0.00 81 1016.0
20260905002338 78 127 0.0 0.9 0.00 0.00 0.00 81 1016.0
20260905001832 78 21 0.9 2.6 0.00 0.00 0.00 80 1016.0
20260905001327 79 151 0.0 0.9 0.00 0.00 0.00 80 1016.1
20260905000823 79 137 0.9 1.7 0.00 0.00 0.00 79 1016.2
20260905000318 79 119 0.0 0.9 0.00 0.00 0.00 78 1015.8
20260904235812 80 139 0.0 1.7 0.00 0.00 0.00 77 1016.0
20260904235307 80 113 0.9 1.7 0.00 0.00 0.00 76 1015.9
20260904234802 81 112 0.9 2.6 0.00 0.00 0.00 75 1015.9
20260904234252 82 109 0.9 2.6 0.00 0.00 0.00 74 1015.9
20260904233747 82 82 0.9 2.6 0.00 0.00 0.00 72 1015.9
20260904233238 83 81 2.6 3.5 0.00 0.00 0.00 71 1015.9
20260904232734 83 147 2.6 3.5 0.00 0.00 0.00 71 1015.8
20260904232230 83 91 1.7 5.2 0.00 0.00 0.00 70 1015.7
20260904231725 84 28 2.6 3.5 0.00 0.00 0.00 69 1015.7
20260904231220 84 45 1.7 3.5 0.00 0.00 0.00 70 1015.6
20260904230715 84 57 2.6 3.5 0.00 0.00 0.00 68 1015.7
20260904230209 84 98 1.7 5.2 0.00 0.00 0.00 68 1015.6
20260904225708 85 54 4.3 7.0 0.00 0.00 0.00 67 1015.5
20260904225202 84 121 0.9 2.6 0.00 0.00 0.00 68 1015.5
20260904224656 84 88 1.7 3.5 0.00 0.00 0.00 68 1015.5
20260904224151 85 171 1.7 6.1 0.00 0.00 0.00 66 1015.7
20260904223650 85 135 6.1 7.0 0.00 0.00 0.00 66 1015.7
20260904223146 85 95 3.5 3.5 0.00 0.00 0.00 65 1015.6
20260904222642 84 75 1.7 5.2 0.00 0.00 0.00 67 1015.5
20260904222137 85 99 4.3 6.1 0.00 0.00 0.00 67 1015.5
20260904221636 85 8 3.5 6.1 0.00 0.00 0.00 67 1015.6
20260904221131 85 80 3.5 7.8 0.00 0.00 0.00 67 1015.4
20260904220626 85 83 2.6 5.2 0.00 0.00 0.00 64 1015.5
20260904220121 86 91 3.5 6.1 0.00 0.00 0.00 65 1015.6
20260904215616 85 26 3.5 6.1 0.00 0.00 0.00 65 1015.4
20260904215112 85 80 1.7 6.1 0.00 0.00 0.00 68 1015.5
20260904214607 86 52 1.7 2.6 0.00 0.00 0.00 65 1015.4
20260904214103 86 86 1.7 3.5 0.00 0.00 0.00 65 1015.5
20260904213600 85 266 0.9 3.5 0.00 0.00 0.00 66 1015.4
20260904213057 86 55 5.2 6.1 0.00 0.00 0.00 64 1015.5
20260904212556 85 209 0.9 3.5 0.00 0.00 0.00 66 1015.6
20260904212052 86 98 4.3 6.1 0.00 0.00 0.00 67 1015.7
20260904211551 85 55 3.5 5.2 0.00 0.00 0.00 68 1015.6
20260904211047 85 139 1.7 2.6 0.00 0.00 0.00 68 1015.7
20260904210546 86 328 2.6 5.2 0.00 0.00 0.00 67 1015.5
20260904210042 85 103 2.6 3.5 0.00 0.00 0.00 67 1015.4
20260904205536 86 107 1.7 2.6 0.00 0.00 0.00 68 1015.6
20260904205033 86 6 1.7 3.5 0.00 0.00 0.00 69 1015.4
20260904204529 85 358 1.7 2.6 0.00 0.00 0.00 68 1015.5
20260904204025 85 41 0.9 1.7 0.00 0.00 0.00 68 1015.6
20260904203520 85 188 0.0 5.2 0.00 0.00 0.00 70 1015.5
20260904203017 84 76 2.6 6.1 0.00 0.00 0.00 70 1015.6
20260904202512 85 17 2.6 5.2 0.00 0.00 0.00 69 1015.5
20260904202008 85 42 1.7 8.7 0.00 0.00 0.00 74 1015.7
20260904201503 85 14 1.7 2.6 0.00 0.00 0.00 72 1015.7
20260904200959 84 74 1.7 5.2 0.00 0.00 0.00 71 1015.7
20260904200457 84 333 1.7 7.0 0.00 0.00 0.00 73 1015.6
20260904195952 84 103 1.7 2.6 0.00 0.00 0.00 71 1015.6
20260904195450 83 299 1.7 5.2 0.00 0.00 0.00 74 1015.6
20260904194949 84 86 1.7 2.6 0.00 0.00 0.00 72 1015.5
20260904194444 82 32 0.9 5.2 0.00 0.00 0.00 76 1015.5
20260904193939 82 66 1.7 2.6 0.00 0.00 0.00 75 1015.5
20260904193435 82 1 3.5 6.1 0.00 0.00 0.00 77 1015.3
20260904192930 82 84 2.6 5.2 0.00 0.00 0.00 76 1015.4
20260904192425 82 223 0.0 5.2 0.00 0.00 0.00 78 1015.7
20260904191922 81 53 3.5 5.2 0.00 0.00 0.00 79 1015.5
20260904191418 81 131 3.5 6.1 0.00 0.00 0.00 79 1015.8
20260904190914 81 155 1.7 5.2 0.00 0.00 0.00 79 1015.6
20260904190409 80 151 1.7 5.2 0.00 0.00 0.00 81 1015.6
20260904185906 81 340 0.9 5.2 0.00 0.00 0.00 80 1015.9
20260904185401 80 65 0.9 6.1 0.00 0.00 0.00 82 1015.9
20260904184901 79 121 3.5 5.2 0.00 0.00 0.00 81 1015.7
20260904184356 79 19 1.7 3.5 0.00 0.00 0.00 82 1015.7
20260904183851 78 40 3.5 5.2 0.00 0.00 0.00 83 1015.7
20260904183346 78 22 4.3 6.1 0.00 0.00 0.00 84 1015.9
20260904182842 78 1 4.3 5.2 0.00 0.00 0.00 83 1015.8
20260904182336 77 107 1.7 6.1 0.00 0.00 0.00 86 1016.0
20260904181832 77 75 2.6 5.2 0.00 0.00 0.00 87 1016.1
20260904181332 77 86 3.5 5.2 0.00 0.00 0.00 86 1016.2
20260904180827 77 119 2.6 5.2 0.00 0.00 0.00 86 1016.2
20260904180323 76 34 2.6 5.2 0.00 0.00 0.00 87 1016.1
20260904175821 76 66 1.7 2.6 0.00 0.00 0.00 88 1016.1
20260904175320 76 0 0.9 3.5 0.00 0.00 0.00 87 1016.1
20260904174815 76 64 3.5 6.1 0.00 0.00 0.00 88 1016.0
20260904174311 75 38 4.3 7.0 0.00 0.00 0.00 88 1016.1
20260904173807 75 92 3.5 7.8 0.00 0.00 0.00 90 1016.1
20260904173302 75 15 1.7 6.1 0.00 0.00 0.00 90 1015.9
20260904172758 74 85 1.7 6.1 0.00 0.00 0.00 91 1015.8
20260904172257 74 38 2.6 5.2 0.00 0.00 0.00 92 1016.0
20260904171752 74 64 4.3 6.1 0.00 0.00 0.00 92 1016.1
20260904171248 74 91 2.6 5.2 0.00 0.00 0.00 92 1016.0
20260904170744 73 92 2.6 7.0 0.00 0.00 0.00 93 1016.3
20260904170239 73 63 3.5 5.2 0.00 0.00 0.00 94 1015.8
20260904165738 74 54 4.3 7.0 0.00 0.00 0.00 93 1015.6
20260904165232 73 65 2.6 6.1 0.00 0.00 0.00 94 1015.7
20260904164732 73 16 2.6 2.6 0.00 0.00 0.00 95 1015.8
20260904164227 72 198 0.9 2.6 0.00 0.00 0.00 96 1015.7
20260904163724 72 3 1.7 5.2 0.00 0.00 0.00 97 1015.6
20260904163219 71 11 2.6 2.6 0.00 0.00 0.00 97 1015.7
20260904162718 71 36 3.5 5.2 0.00 0.00 0.00 98 1015.6
20260904162213 71 27 3.5 3.5 0.00 0.00 0.00 99 1015.6
20260904161708 70 43 3.5 3.5 0.00 0.00 0.00 99 1015.6
20260904161203 69 26 0.9 3.5 0.00 0.00 0.00 99 1015.4
20260904160700 69 50 1.7 5.2 0.00 0.00 0.00 99 1015.3
20260904160154 69 27 1.7 3.5 0.00 0.00 0.00 99 1015.4
20260904155649 68 28 1.7 3.5 0.00 0.00 0.00 99 1015.5
20260904155148 68 25 3.5 3.5 0.00 0.00 0.00 99 1015.4
20260904154647 68 116 1.7 2.6 0.00 0.00 0.00 99 1015.4
20260904154142 68 265 0.0 3.5 0.00 0.00 0.00 99 1015.4
20260904153637 68 340 2.6 5.2 0.00 0.00 0.00 99 1015.4
20260904153137 67 104 1.7 2.6 0.00 0.00 0.00 99 1015.2
20260904152634 67 38 2.6 5.2 0.00 0.00 0.00 99 1015.4
20260904152129 67 76 1.7 3.5 0.00 0.00 0.00 99 1015.5
20260904151624 67 88 4.3 7.0 0.00 0.00 0.00 99 1015.4
20260904151123 67 100 1.7 3.5 0.00 0.00 0.00 99 1015.3
20260904150619 67 87 0.9 2.6 0.00 0.00 0.00 99 1015.2
20260904150114 66 66 1.7 3.5 0.00 0.00 0.00 99 1015.1
20260904145612 67 5 0.9 2.6 0.00 0.00 0.00 99 1015.2
20260904145108 66 5 1.7 2.6 0.00 0.00 0.00 99 1015.3
20260904144604 66 33 1.7 1.7 0.00 0.00 0.00 99 1015.2
20260904144059 66 98 0.9 2.6 0.00 0.00 0.00 99 1015.3
20260904143555 66 80 0.9 1.7 0.00 0.00 0.00 99 1015.1
20260904143051 66 54 1.7 5.2 0.00 0.00 0.00 99 1015.0
20260904142548 66 36 0.9 2.6 0.00 0.00 0.00 99 1015.1
20260904142043 66 4 0.9 2.6 0.00 0.00 0.00 99 1014.7
20260904141538 66 39 1.7 2.6 0.00 0.00 0.00 99 1014.6
20260904141034 66 9 1.7 3.5 0.00 0.00 0.00 99 1014.7
20260904140533 66 327 1.7 1.7 0.00 0.00 0.00 99 1014.6
20260904140028 66 100 1.7 1.7 0.00 0.00 0.00 99 1014.6
20260904135527 66 43 1.7 5.2 0.00 0.00 0.00 99 1014.5
20260904135024 66 37 0.9 2.6 0.00 0.00 0.00 99 1014.4
20260904134519 66 78 1.7 2.6 0.00 0.00 0.00 99 1014.3
20260904134013 66 85 1.7 2.6 0.00 0.00 0.00 99 1014.3
20260904133507 66 121 0.9 1.7 0.00 0.00 0.00 99 1014.2
20260904133003 66 56 0.9 2.6 0.00 0.00 0.00 99 1014.1
20260904132458 66 344 0.9 2.6 0.00 0.00 0.00 99 1014.2
20260904131957 65 23 1.7 3.5 0.00 0.00 0.00 99 1014.2
20260904131452 65 359 1.7 2.6 0.00 0.00 0.00 99 1014.4
20260904130948 65 14 1.7 3.5 0.00 0.00 0.00 99 1014.2
20260904130447 65 82 0.9 1.7 0.00 0.00 0.00 99 1014.2
20260904125942 65 102 0.9 1.7 0.00 0.00 0.00 99 1014.2
20260904125438 65 2 1.7 1.7 0.00 0.00 0.00 99 1014.1
20260904124933 66 349 1.7 3.5 0.00 0.00 0.00 99 1013.7
20260904124429 65 258 0.9 1.7 0.00 0.00 0.00 99 1013.8
20260904123924 65 65 1.7 3.5 0.00 0.00 0.00 99 1013.6
20260904123419 65 9 0.9 1.7 0.00 0.00 0.00 99 1013.5
20260904122914 65 4 1.7 2.6 0.00 0.00 0.00 99 1013.5
20260904122414 65 87 1.7 1.7 0.00 0.00 0.00 99 1013.5
20260904121908 65 101 0.9 1.7 0.00 0.00 0.00 99 1013.4
20260904121405 65 331 1.7 2.6 0.00 0.00 0.00 99 1013.3
20260904120901 65 295 0.0 1.7 0.00 0.00 0.00 99 1013.4